Regional Weather Roundup
Issued by NWS

Home | Current Version | Previous Version | Graphics & Text | Print | Product List | Glossary On
Versions: 1 2 3 4 5 6 7 8 9 10 11 12 13 14 15 16 17 18 19 20 21 22 23 24 25 26 27 28 29 30 31 32 33 34 35 36 37 38 39 40 41 42 43 44 45 46 47 48
000
ASUS45 KSLC 141010
RWRUT

UTAH REGIONAL WEATHER ROUNDUP
NATIONAL WEATHER SERVICE SALT LAKE CITY UT
400 AM MDT SUN SEP 14 2014

UTZ001>011-023>025-141100-

NORTHERN UTAH

CITY           SKY/WX    TMP DP  RH WIND       PRES   REMARKS
HILL AFB       PTCLDY    62  35  36 E17       30.02R
LOGAN          CLEAR     46  41  82 CALM      30.02S
OGDEN          PTCLDY    62  36  37 S9        29.99S
PROVO AIRPORT  PTCLDY    55  45  67 SW3       30.05F
SALT LAKE CITY MOCLDY    66  35  31 SE10      29.98R
VERNAL         CLEAR     50  39  66 W3        30.12S
WENDOVER       PTCLDY    61  28  29 W6        29.99S
HEBER CITY     PTCLDY    43  37  81 CALM      30.14R
WEST JORDAN    CLEAR     66  36  32 S13       30.02R

$$

UTZ012>022-026-027-141100-

SOUTHERN UTAH

CITY           SKY/WX    TMP DP  RH WIND       PRES   REMARKS
BRYCE CANYON   PTCLDY    42  36  79 W5        30.29S
CEDAR CITY     CLEAR     58  35  42 CALM      30.12S
MILFORD        CLEAR     57  36  45 S9        30.07S
MOAB/CYNLANDS  CLEAR     62  39  42 CALM      30.06R
PRICE          PTCLDY    59  32  36 N8        30.15S
ST GEORGE      MOSUNNY   70  39  32 CALM      29.97S
KANAB            N/A     54  37  54 N5        30.14R

$$

REGIONAL REPORTS     COLORADO/ARIZONA

CITY           SKY/WX    TMP DP  RH WIND       PRES   REMARKS
CRAIG, CO      CLEAR     40  35  83 CALM      30.20R
GRAND JUNCTION CLEAR     54  36  50 SE7       30.11S
RIFLE          CLEAR     49  35  58 CALM      30.19S
MONTROSE       PTCLDY    55  35  47 SE9       30.21R
CORTEZ         CLEAR     46  39  76 CALM      30.23R
PAGE, AZ       CLEAR     73  37  27 S5        30.05S
GRAND CANYON   CLEAR     46  42  86 CALM      30.23R
KINGMAN        CLEAR     72  52  49 SE9       29.98R
FLAGSTAFF      CLEAR     50  46  86 CALM      30.27S

$$

REGIONAL REPORTS    NEVADA/IDAHO/WYOMING

CITY           SKY/WX    TMP DP  RH WIND       PRES   REMARKS
LAS VEGAS, NV  CLEAR     81  43  26 SW8       29.82R
ELY            PTCLDY    57  27  31 CALM      30.15R
ELKO           PTCLDY    47  28  47 CALM      30.06R
POCATELLO, ID  CLEAR     44  33  65 S7        30.01S
BURLEY         MOCLDY    48  36  63 S5        29.99S
EVANSTON, WY   PTCLDY    53  27  36 SE6       30.19S
ROCK SPRINGS   PTCLDY    53  23  31 CALM      30.17R

$$



USA.gov is the U.S. government's official web portal to all federal, state and local government web resources and services.